map of MAN home
MAN - Airport
Location
City:  Manchester, England, United Kingdom
Name:Ringway International Airport
ICAO:EGCC
IATA:MAN

Details
Type:Airport (Aerodrome, Airfield)
Use:Public/Civil, International (customs port of entry)
Latitude:5321'14"N (53.353889)
Longitude:216'30"W (-2.274999)
Elevation:257 ft (78 m)
Variation:1.65W (WMM2015 magnetic declination)
0.16 annual change
Runways:2
Longest:10007 × 148 ft (3050 × 45 m), paved

Time
Time Zone:UTC+0 (DST+1)
Local Time:

Weather
METAR:EGCC 290750Z 23014KT CAVOK 14/10 Q1010 NOSIG
TAF:EGCC 290501Z 2906/3012 22015KT 9999 SCT020
TEMPO 2908/2918 25018G28KT
BECMG 2912/2915 28015KT
BECMG 2918/2921 21008KT PROB30
TEMPO 2918/3012 8000 SHRA

Related Locations
Nearby:
Farthest:NZBA: 11826 mi / 19033 km
Balclutha, NZ

Find:

   beyond  
but within

Other Information
Maps:
NOTAMs:
Links:
Sources:

  
flag of United Kingdom
flag of England
  

Airport Diagram

Airport diagram for MAN

Airport diagram PDF

Sectional Chart

Flight Planning
at skyvector.com

Satellite Image

Google Maps Satellite view

 

Copyright © 2004-2016 Karl L. Swartz. All rights reserved.
The Great Circle Mapper name and logo are trademarks of the Great Circle Mapper.
All other trademarks mentioned herein belong to their respective owners.
Please see credits for attibutions and further copyright information.

  Follow gcmap on Facebook Follow gcmap on Twitter Follow gcmap on Google+ GCmap on LinkedIn

hCard Microformat

Geo Microformat